Regional Weather Roundup
Issued by NWS

Home | Current Version | Previous Version | Graphics & Text | Print | Product List | Glossary On
Versions: 1 2 3 4 5 6 7 8 9 10 11 12 13 14 15 16 17 18 19 20 21 22 23 24 25 26 27 28 29 30 31 32 33 34 35 36 37 38 39 40 41 42 43 44 45 46 47 48 49 50
535
ASUS43 KDMX 172306
RWRIA

WEATHER ROUNDUP FOR IOWA
NATIONAL WEATHER SERVICE DES MOINES IA
500 PM CST SUN DEC 17 2017

NOTE: "FAIR" INDICATES FEW OR NO CLOUDS BELOW 12,000 FEET WITH NO
SIGNIFICANT WEATHER AND/OR OBSTRUCTIONS TO VISIBILITY.

* - THESE STATIONS ARE NOT NWS STATIONS...THUS NOT UNDER NWS
QUALITY CONTROL.  THEY ALSO DO NOT REPORT WEATHER SUCH
AS PRECIPITATION OR FOG.

IAZ001>003-012>014-020>022-031>034-043>046-180000-
   NORTHWEST IOWA

CITY           SKY/WX    TMP DP  RH WIND       PRES   REMARKS
CARROLL *      CLOUDY    32  28  86 N6        29.97R FOG     WCI  26
CHEROKEE *     CLOUDY    33  28  84 CALM      29.96R HAZE
DENISON *      MOCLDY    30  27  86 NW3       29.99  FOG
LE MARS *      CLOUDY    34  28  80 NW3       29.96R
ORANGE CITY *  CLOUDY    34  30  86 CALM      29.95R
SHELDON *      CLEAR     27  25  93 CALM      29.93S FOG
SIOUX CITY     CLOUDY    34  28  79 W5        29.97R WCI  30
SPENCER        CLOUDY    31  26  82 CALM      29.94F
STORM LAKE *   PTCLDY    30  27  86 CALM      29.94S
$$

IAZ055>058-069>071-079>083-090>094-180000-
   SOUTHWEST IOWA

CITY           SKY/WX    TMP DP  RH WIND       PRES   REMARKS
ATLANTIC *     CLEAR     34  27  75 NW5       29.97R WCI  30
AUDUBON *      CLOUDY    30  25  80 CALM      29.98R
CLARINDA *     CLOUDY    34  34 100 NW6         N/A  FOG     WCI  29
COUNCIL BLFS * CLEAR     32  30  93 NW7       29.98R WCI  26
CRESTON *      CLOUDY    36  32  87 CALM      29.97S
HARLAN  *      MOCLDY    28  25  86 NW7       30.02R WCI  21
LAMONI         CLOUDY    42  39  89 S5        29.96S
RED OAK *      CLEAR     34  32  93 W5        29.99R WCI  30
SHENANDOAH *   CLOUDY    36  32  87 CALM      30.01S FOG
$$

IAZ047>049-059>061-072>074-084-180000-
   CENTRAL IOWA

CITY           SKY/WX    TMP DP  RH WIND       PRES   REMARKS
AMES           CLOUDY    36  30  79 E3        29.95S
ANKENY *       CLOUDY    37  30  75 SW3       29.98R
BOONE *        CLOUDY    34  28  80 N6        29.94S HAZE    WCI  29
CHARITON *     MIX PCPN  37  37 100 CALM      29.97R
DES MOINES     CLOUDY    37  31  78 S5        29.97R WCI  33
GRINNELL*      CLOUDY    37  33  85 S6        29.97R WCI  33
KNOXVILLE *    MIX PCPN  37  36  93 W3        29.97R
MARSHALLTOWN   CLOUDY    36  31  82 NE6       29.95R WCI  31
NEWTON *       CLOUDY    37  34  87 S5        29.96S WCI  34
PELLA *        DRIZZLE   37  35  92 CALM      29.99R
PERRY *        MOCLDY    35  27  72 NW3       29.96R
$$

IAZ004>006-015-016-023>025-035-036-180000-
   NORTH CENTRAL IOWA

CITY           SKY/WX    TMP DP  RH WIND       PRES   REMARKS
ALGONA *       CLOUDY    30  27  86 NE3       29.95F
CLARION *      CLOUDY    30  32 100 CALM      29.95F FOG
ESTHERVILLE    CLOUDY    30  26  85 E3        29.94S
FORT DODGE *   CLOUDY    31  28  89 N3        29.96F FOG
MASON CITY     CLOUDY    28  27  96 CALM      29.97S FOG
FOREST CITY *  CLOUDY    30  30 100 CALM      29.96S FOG
WEBSTER CITY * CLOUDY    34  28  80 N6        29.93F WCI  29
IOWA FALLS *   CLOUDY    34  30  85 E5        29.96F WCI  30
$$

IAZ007>011-017>019-026>030-037>042-050>054-066-180000-
   NORTHEAST IOWA

CITY           SKY/WX    TMP DP  RH WIND       PRES   REMARKS
CEDAR RAPIDS   LGT RAIN  37  30  75 CALM      29.97R
CLINTON *      LGT RAIN  38  32  79 NE6       29.98R WCI  33
DECORAH *      CLOUDY    32  30  93 CALM      29.95S FOG
DUBUQUE        CLOUDY    34  30  85 CALM      29.96R FOG
MONTICELLO *   CLOUDY    36  30  80 E5        29.96S WCI  32
OELWEIN *      CLOUDY    34  34 100 NE6       29.96R FOG     WCI  29
WATERLOO       CLOUDY    35  29  78 CALM      29.97R HAZE
$$

IAZ064-065-067-068-078-180000-
   EAST CENTRAL IOWA

CITY           SKY/WX    TMP DP  RH WIND       PRES   REMARKS
DAVENPORT      LGT RAIN  40  32  73 SW5       30.01R
IOWA CITY      CLOUDY    39  35  86 CALM      30.00R
MT. PLEASANT * CLOUDY    41  41 100 CALM      29.99R FOG
MUSCATINE *    CLOUDY    39  37  93 CALM      29.99R
QUAD CITIES    LGT RAIN  42  35  76 CALM      29.98R
$$

IAZ062-063-075>077-085>089-095>099-180000-
   SOUTHEAST IOWA

CITY           SKY/WX    TMP DP  RH WIND       PRES   REMARKS
BURLINGTON     CLOUDY    43  40  89 CALM      29.99R
FAIRFIELD *    CLOUDY    41  39  93 S3        29.97R
FORT MADISON * CLOUDY    45  43  93 CALM      30.00R
KEOKUK *       CLOUDY    46  43  87 SW6       29.99R
OSKALOOSA *    LGT RAIN  38  37  96 W3        29.98R
OTTUMWA        CLOUDY    41  39  93 CALM      29.97R FOG
WASHINGTON *   CLOUDY    39  39 100 SW6       29.99R FOG     WCI  35
$$

ABBREVIATIONS USED IN REMARKS
   TC - TEMPERATURES IN CELSIUS
  WCI - WIND CHILL INDEX
   HX - HEAT INDEX
  VSB - VISIBILITY
$$





USA.gov is the U.S. government's official web portal to all federal, state and local government web resources and services.